Location: Sternwarte ZA, Rosenfeld-Brittheim
(48.2889°N, 8.6789°E)
Time: 03:53:44
(UTC+02:00)

ISS - Pass Details

Date: 29 May 2017
Orbit: 401 x 408 km, 51.6° (Epoch: 25 June)

Event Time Altitude Azimuth Distance (km) Brightness Sun altitude
Rises 02:22:25 0° 291° (WNW) 2,338 0.1 -18.8°
Reaches altitude 10° 02:24:32 10° 286° (WNW) 1,473 -1.0 -18.7°
Enters shadow 02:25:53 22° 277° (W) 961 -2.0 -18.7°
